sat.trackr.live / text

‹ back to catalog

STARLINK-4409

NORAD 53203 · 2022-084Q

PAYLOAD ACTIVE UNKNOWN

§ Identity

Operator
Country
US
Launch date
2022-07-22
Launch site
AFWTR
Launch vehicle
Mass (kg)
RCS (m²)

Purposes: comms

External: N2YO · Heavens-Above · Gunter

§ Orbital elements

Epoch: 2026-05-25T03:20:51.181728Z

Period
95.64 min
Inclination
97.4494°
Eccentricity
0.0001364
Mean motion
15.05646643 rev/d
Perigee alt
548.6 km
Apogee alt
550.5 km
Semi-major
6,927.7 km
B*
-5.7251e-5
RAAN
206.2115°
Arg perigee
134.3276°
Mean anomaly
225.8063°
Rev number
21,088

§ Raw data

STARLINK-44091 53203U 22084Q   26145.13948127 -.00000884  00000+0 -57251-4 0  99972 53203  97.4494 206.2115 0001364 134.3276 225.8063 15.05646643210884

JSON: /api/v1/satellites/53203 · /tle

For live sub-satellite position, see the globe view (requires WebGL).

§ Visibility from observer

Set your observer location to see the next 7 days of passes ≥ 10°. The values pass through the URL so the page stays shareable.

No JS? Fill the form by hand. The geolocation button needs JavaScript.